Location: Bear Valley Community Church - Hurst
(32.8460°N, 97.1828°W)
Time: 01:16:24
(UTC+00:00)

Cosmos 1092 Rocket - Pass Details

Date: 05 July 2022
Orbit: 955 x 994 km, 83.0° (Epoch: 07 August)

Event Time Altitude Azimuth Distance (km) Brightness Sun altitude
Rises 10:38:58 0° 132° (SE) 3,632 7.2 -9.3°
Reaches altitude 10° 10:43:16 10° 104° (ESE) 2,685 7.0 -8.5°
Maximum altitude 10:45:28 12° 82° (E) 2,533 7.3 -8.1°
Drops below altitude 10° 10:47:41 10° 60° (ENE) 2,686 8.1 -7.8°
Sets 10:51:58 0° 32° (NNE) 3,635 8.4 -7.0°
